Location: ?????
(42.2640°N, 43.4211°E)
Time: 14:21:03
(UTC+00:00)

NOSS 2-3 (C) - Pass Details

Date: 07 August 2020
Orbit: 572 x 1639 km, 63.4° (Epoch: 17 September)

Event Time Altitude Azimuth Distance (km) Brightness Sun altitude
Exits shadow 01:13:46 12° 243° (WSW) 1,776 5.2 -9.3°
Maximum altitude 01:17:25 43° 314° (NW) 905 4.3 -8.7°
Drops below altitude 10° 01:22:09 10° 26° (NNE) 2,249 7.4 -8.0°
Sets 01:24:55 0° 33° (NNE) 3,330 8.6 -7.5°
